Decatur, IL

5:37 AM CST on January 16, 2017 (GMT -0600)
Decatur

Weather History for KDEC - November, 2014

Change the Weather History Date:

Thursday, November 20, 2014

  Actual Average Record
Temperature  
Mean Temperature 26 °F 41 °F  
Max Temperature 33 °F 49 °F 72 °F (2007)
Min Temperature 19 °F 32 °F 19 °F (2014)
Degree Days  
Heating Degree Days 39 24  
Month to date heating degree days 577 396  
Since 1 July heating degree days 989 814  
Cooling Degree Days 0 0  
Month to date cooling degree days 0 0  
Year to date cooling degree days 1011 1048  
Moisture  
Dew Point 12 °F    
Average Humidity 57    
Maximum Humidity 73    
Minimum Humidity 41    
Precipitation  
Precipitation T in 0.11 in 0.04 in (2013)
Month to date precipitation 0.56 2.26  
Year to date precipitation 33.58 34.74  
Sea Level Pressure  
Sea Level Pressure 30.23 in    
Wind  
Wind Speed 10 mph (WNW)    
Max Wind Speed 21 mph    
Max Gust Speed 29 mph    
Visibility 10 miles    
Events      
T = Trace of Precipitation, MM = Missing Value Source: NWS Daily Summary

Daily Weather History Graph

Daily Weather History Graph

Search for Another Location

Airport or City:

Trip Planner

Search our weather history database for the weather conditions in past years. The results will help you decide how hot, cold, wet, or windy it might be!

Date:

Astronomy

Nov. 20, 2014 Rise Set
Actual Time 6:45 AM CST 4:35 PM CST
Civil Twilight 6:16 AM CST 5:05 PM CST
Nautical Twilight 5:43 AM CST 5:38 PM CST
Astronomical Twilight 5:11 AM CST 6:10 PM CST
Moon 4:41 AM CST (11/20) 3:39 PM CST (11/20)
Length of Visible Light 10h 48m
Length of Day
9h 50m
Waning Crescent, 4% of the Moon is Illuminated
Nov 20
Waning Crescent
Nov 22
New
Nov 29
First Quarter
Dec 6
Full
Dec 14
Last Quarter

Hourly Weather History & Observations

Time (CST) Temp. Windchill Dew Point Humidity Pressure Visibility Wind Dir Wind Speed Gust Speed Precip Events Conditions
12:54 AM 25.0 °F 15.5 °F 12.0 °F 58% 30.16 in 10.0 mi West 9.2 mph - 0.00 in   Overcast
1:54 AM 26.1 °F 16.8 °F 12.9 °F 58% 30.17 in 10.0 mi West 9.2 mph - N/A   Overcast
2:54 AM 25.0 °F 13.6 °F 12.0 °F 58% 30.16 in 10.0 mi WNW 12.7 mph - N/A   Overcast
3:54 AM 23.0 °F 13.1 °F 12.9 °F 65% 30.16 in 10.0 mi West 9.2 mph - 0.00 in   Clear
4:54 AM 21.9 °F 12.5 °F 12.9 °F 68% 30.17 in 10.0 mi WSW 8.1 mph - N/A   Clear
5:54 AM 21.0 °F 11.4 °F 12.0 °F 68% 30.18 in 10.0 mi West 8.1 mph - N/A   Clear
6:54 AM 19.9 °F 10.1 °F 12.0 °F 71% 30.21 in 10.0 mi West 8.1 mph - N/A   Clear
7:54 AM 21.9 °F 13.4 °F 12.9 °F 68% 30.22 in 10.0 mi West 6.9 mph - N/A   Clear
8:54 AM 26.1 °F 15.6 °F 12.9 °F 58% 30.23 in 10.0 mi West 11.5 mph - N/A   Clear
9:54 AM 28.9 °F 19.2 °F 12.9 °F 51% 30.24 in 10.0 mi WNW 11.5 mph 21.9 mph N/A   Scattered Clouds
10:54 AM 28.9 °F 18.2 °F 12.9 °F 51% 30.24 in 10.0 mi West 13.8 mph - N/A   Scattered Clouds
11:54 AM 32.0 °F 23.0 °F 12.9 °F 45% 30.22 in 10.0 mi West 11.5 mph - N/A   Clear
12:54 PM 32.0 °F 21.6 °F 14.0 °F 48% 30.20 in 10.0 mi WSW 15.0 mph 23.0 mph N/A   Partly Cloudy
1:54 PM 33.1 °F 24.4 °F 12.9 °F 43% 30.19 in 10.0 mi West 11.5 mph - N/A   Partly Cloudy
2:54 PM 33.1 °F 22.6 °F 12.9 °F 43% 30.20 in 10.0 mi West 16.1 mph - N/A   Clear
3:54 PM 32.0 °F 22.5 °F 12.9 °F 45% 30.21 in 10.0 mi West 12.7 mph - N/A   Clear
4:54 PM 30.0 °F 23.2 °F 14.0 °F 51% 30.24 in 10.0 mi West 6.9 mph - N/A   Clear
5:54 PM 28.9 °F 22.8 °F 12.9 °F 51% 30.26 in 10.0 mi West 5.8 mph - N/A   Clear
6:54 PM 27.0 °F 19.5 °F 12.0 °F 53% 30.27 in 10.0 mi West 6.9 mph - N/A   Clear
7:54 PM 26.1 °F 18.4 °F 10.9 °F 53% 30.30 in 10.0 mi NW 6.9 mph - N/A   Clear
8:54 PM 25.0 °F 17.1 °F 10.9 °F 55% 30.31 in 10.0 mi NW 6.9 mph - N/A   Clear
9:54 PM 25.0 °F 15.5 °F 10.9 °F 55% 30.33 in 10.0 mi NW 9.2 mph - N/A   Clear
10:54 PM 21.0 °F 10.6 °F 10.9 °F 65% 30.36 in 10.0 mi North 9.2 mph - N/A   Clear
11:54 PM 19.0 °F 11.1 °F 10.0 °F 68% 30.38 in 10.0 mi North 5.8 mph - N/A   Clear